Le nostre stazioni meteo in Italia

Pubblicità
Il mio iltempo24.it
Monte Settepani, Italia (16111): Temperatura & dewpoint: 19.05.2019 08:00:00 - 25.05.2019 08:00:00 (CEST)
Data & Tempo tt [°C] td [°C]
25.05.2019 08:00:00 - -
25.05.2019 07:00:00 9,8 8,7
25.05.2019 06:00:00 9,5 8,1
25.05.2019 05:00:00 10,0 8,6
25.05.2019 04:00:00 10,1 -
25.05.2019 03:00:00 10,7 6,2
25.05.2019 02:00:00 10,7 7,5
25.05.2019 01:00:00 11,1 5,6
25.05.2019 00:00:00 11,4 -
24.05.2019 23:00:00 11,6 9,5
24.05.2019 22:00:00 11,6 9,3
24.05.2019 21:00:00 12,0 10,1
24.05.2019 20:00:00 11,8 9,9
24.05.2019 19:00:00 12,7 10,0
24.05.2019 18:00:00 13,5 9,5
24.05.2019 17:00:00 15,4 10,1
24.05.2019 16:00:00 16,2 12,9
24.05.2019 15:00:00 15,1 7,1
24.05.2019 14:00:00 14,9 9,6
24.05.2019 13:00:00 15,0 10,4
24.05.2019 12:00:00 14,1 11,8
24.05.2019 11:00:00 15,0 12,7
24.05.2019 10:00:00 12,9 11,3
24.05.2019 09:00:00 12,1 10,3
24.05.2019 08:00:00 11,7 9,6
24.05.2019 07:00:00 11,5 9,0
24.05.2019 06:00:00 10,1 4,8
24.05.2019 05:00:00 10,9 6,6
24.05.2019 04:00:00 11,6 6,5
24.05.2019 03:00:00 11,6 9,7
24.05.2019 02:00:00 11,3 8,8
24.05.2019 01:00:00 12,3 8,1
24.05.2019 00:00:00 12,3 8,3
23.05.2019 23:00:00 11,0 8,0
23.05.2019 22:00:00 11,0 8,2
23.05.2019 21:00:00 10,5 8,2
23.05.2019 20:00:00 11,0 7,8
23.05.2019 19:00:00 12,2 -
23.05.2019 18:00:00 13,8 11,1
23.05.2019 17:00:00 14,2 11,5
23.05.2019 16:00:00 14,1 11,6
23.05.2019 15:00:00 14,1 -
23.05.2019 14:00:00 13,8 10,4
23.05.2019 13:00:00 14,0 10,6
23.05.2019 12:00:00 14,4 11,5
23.05.2019 11:00:00 12,9 11,8
23.05.2019 10:00:00 12,7 11,3
23.05.2019 09:00:00 12,2 11,4
23.05.2019 08:00:00 10,7 9,6
23.05.2019 07:00:00 9,2 9,2
23.05.2019 06:00:00 9,7 6,4
23.05.2019 05:00:00 9,8 7,5
23.05.2019 04:00:00 10,1 6,8
23.05.2019 03:00:00 10,4 7,4
23.05.2019 02:00:00 10,4 -
23.05.2019 01:00:00 10,6 8,5
23.05.2019 00:00:00 11,3 7,4
22.05.2019 23:00:00 11,5 9,2
22.05.2019 22:00:00 11,2 -
22.05.2019 21:00:00 11,1 -
22.05.2019 20:00:00 7,9 -
22.05.2019 19:00:00 8,3 -
22.05.2019 18:00:00 9,0 -
22.05.2019 17:00:00 9,3 -
22.05.2019 16:00:00 8,7 -
22.05.2019 15:00:00 8,8 -
22.05.2019 14:00:00 8,9 -
22.05.2019 13:00:00 8,8 -
22.05.2019 12:00:00 9,0 -
22.05.2019 11:00:00 8,1 -
22.05.2019 10:00:00 7,9 -
22.05.2019 09:00:00 7,7 -
22.05.2019 08:00:00 7,6 -
22.05.2019 07:00:00 7,5 7,5
22.05.2019 06:00:00 7,5 7,5
22.05.2019 05:00:00 7,4 7,4
22.05.2019 04:00:00 6,6 6,6
22.05.2019 03:00:00 6,8 6,8
22.05.2019 02:00:00 6,8 -
22.05.2019 01:00:00 6,6 -
22.05.2019 00:00:00 6,5 6,5
21.05.2019 23:00:00 6,6 6,6
21.05.2019 22:00:00 6,4 6,4
21.05.2019 21:00:00 7,1 7,1
21.05.2019 20:00:00 7,0 -
21.05.2019 19:00:00 7,2 7,2
21.05.2019 18:00:00 7,4 7,4
21.05.2019 17:00:00 7,6 -
21.05.2019 16:00:00 7,8 -
21.05.2019 15:00:00 8,2 -
21.05.2019 14:00:00 8,6 -
21.05.2019 13:00:00 8,6 -
21.05.2019 12:00:00 8,5 -
21.05.2019 11:00:00 7,8 -
21.05.2019 10:00:00 7,5 -
21.05.2019 09:00:00 6,9 6,9
21.05.2019 08:00:00 6,7 6,7
21.05.2019 07:00:00 6,4 6,4
21.05.2019 06:00:00 5,7 -
21.05.2019 05:00:00 5,8 5,8
21.05.2019 04:00:00 5,9 -
21.05.2019 03:00:00 5,9 5,9
21.05.2019 02:00:00 5,9 -
21.05.2019 01:00:00 6,0 6,0
21.05.2019 00:00:00 6,0 6,0
20.05.2019 23:00:00 5,9 5,9
20.05.2019 22:00:00 6,1 6,1
20.05.2019 21:00:00 5,9 5,9
20.05.2019 20:00:00 5,9 5,9
20.05.2019 19:00:00 5,9 5,9
20.05.2019 18:00:00 6,4 6,4
20.05.2019 17:00:00 6,2 6,2
20.05.2019 16:00:00 6,6 6,6
20.05.2019 15:00:00 6,7 6,7
20.05.2019 14:00:00 6,7 -
20.05.2019 13:00:00 7,2 7,2
20.05.2019 12:00:00 7,2 7,2
20.05.2019 11:00:00 7,3 7,3
20.05.2019 10:00:00 7,4 -
20.05.2019 09:00:00 6,2 6,2
20.05.2019 08:00:00 5,3 5,3
20.05.2019 07:00:00 4,9 4,9
20.05.2019 06:00:00 4,8 -
20.05.2019 05:00:00 4,8 4,8
20.05.2019 04:00:00 5,1 5,1
20.05.2019 03:00:00 5,2 5,2
20.05.2019 02:00:00 5,2 5,2
20.05.2019 01:00:00 5,0 5,0
20.05.2019 00:00:00 5,0 5,0
19.05.2019 23:00:00 5,0 5,0
19.05.2019 22:00:00 5,2 -
19.05.2019 21:00:00 4,8 4,8
19.05.2019 20:00:00 5,5 5,5
19.05.2019 19:00:00 6,0 6,0
19.05.2019 18:00:00 5,9 5,9
19.05.2019 17:00:00 5,5 5,5
19.05.2019 16:00:00 6,6 6,6
19.05.2019 15:00:00 5,8 -
19.05.2019 14:00:00 5,8 5,8
19.05.2019 13:00:00 5,3 5,3
19.05.2019 12:00:00 4,5 4,5
19.05.2019 11:00:00 4,5 4,5
19.05.2019 10:00:00 4,3 4,3
19.05.2019 09:00:00 3,9 3,9
19.05.2019 08:00:00 3,7 -

tt = Temperatura
td = dewpoint

Stazioni seguenti

WeatherPro
AMSI
MeteoEarth